CFG449 EDDH-LSGG

Flight info

Callsign CFG449
Flight time 1h 35m
Altitude 36000
Route HABFU1G/33 HABFU Y348 MAWEQ DCT NVO DCT LIMGO/N0444F350 N852 SUTAL DCT GTQ DCT POGOL DCT LASAT DCT MOROK Z24 AKITO AKITO2N
Aircraft A321/M-SDE3FGHIRWY/LB1

Departure

Time 2026-04-24 19:19
Airport Hamburg Helmut Schmidt Airport (EDDH)

Arrival

Time 2026-04-24 20:54
Airport Geneva International Airport (LSGG)
Time Latitude Longitude Altitude Speed Heading
2026-04-24 18:54 53.63167 10.00362 49 ft 0 kts 86°
2026-04-24 19:11 53.63167 10.00361 49 ft 1 kts 86°
2026-04-24 19:11 53.63167 10.00320 49 ft 4 kts 92°
2026-04-24 19:12 53.63170 10.00276 43 ft 4 kts 112°
2026-04-24 19:12 53.63183 10.00248 45 ft 3 kts 172°
2026-04-24 19:12 53.63186 10.00248 46 ft 0 kts 175°
2026-04-24 19:14 53.63185 10.00248 46 ft 0 kts 175°
2026-04-24 19:14 53.63148 10.00253 45 ft 10 kts 175°
2026-04-24 19:15 53.63082 10.00263 49 ft 10 kts 178°
2026-04-24 19:15 53.63021 10.00212 46 ft 10 kts 213°
2026-04-24 19:15 53.62957 10.00143 47 ft 11 kts 213°
2026-04-24 19:15 53.62888 10.00065 49 ft 12 kts 219°
2026-04-24 19:16 53.62843 9.99954 46 ft 0 kts 243°
2026-04-24 19:18 53.62816 9.99854 46 ft 16 kts 254°
2026-04-24 19:18 53.62850 9.99761 45 ft 16 kts 328°
2026-04-24 19:18 53.62965 9.99661 45 ft 29 kts 333°
2026-04-24 19:18 53.63423 9.99262 47 ft 116 kts 333°
2026-04-24 19:19 53.64339 9.98469 114 ft 172 kts 331°
2026-04-24 19:19 53.65441 9.97558 792 ft 182 kts 330°
2026-04-24 19:19 53.66597 9.96575 1616 ft 189 kts 330°
2026-04-24 19:19 53.67803 9.95527 2434 ft 200 kts 332°
2026-04-24 19:20 53.69059 9.94418 3294 ft 205 kts 333°
2026-04-24 19:20 53.70303 9.93341 4352 ft 200 kts 333°
2026-04-24 19:20 53.71368 9.91826 4774 ft 207 kts 302°
2026-04-24 19:20 53.71612 9.89287 4969 ft 246 kts 269°
2026-04-24 19:21 53.71233 9.86362 5005 ft 261 kts 258°
2026-04-24 19:21 53.70626 9.83454 5009 ft 264 kts 254°
2026-04-24 19:21 53.69955 9.80565 5010 ft 265 kts 253°
2026-04-24 19:21 53.69286 9.77668 5026 ft 267 kts 254°
2026-04-24 19:22 53.68629 9.74683 5822 ft 272 kts 255°
2026-04-24 19:22 53.67996 9.71687 7067 ft 271 kts 256°
2026-04-24 19:22 53.67380 9.68670 8140 ft 274 kts 257°
2026-04-24 19:22 53.66770 9.65607 9197 ft 277 kts 257°
2026-04-24 19:23 53.66155 9.62484 9876 ft 283 kts 257°
2026-04-24 19:23 53.65305 9.59453 10098 ft 291 kts 242°
2026-04-24 19:23 53.63909 9.56866 10164 ft 316 kts 224°
2026-04-24 19:23 53.61970 9.54854 10168 ft 335 kts 213°
2026-04-24 19:24 53.59877 9.52951 10597 ft 346 kts 212°
2026-04-24 19:24 53.57765 9.51044 11713 ft 344 kts 212°
2026-04-24 19:24 53.55659 9.49140 12783 ft 345 kts 212°
2026-04-24 19:24 53.53540 9.47218 13811 ft 347 kts 212°
2026-04-24 19:25 53.51407 9.45277 14716 ft 350 kts 212°
2026-04-24 19:25 53.49260 9.43319 15570 ft 353 kts 212°
2026-04-24 19:25 53.47086 9.41336 16424 ft 357 kts 212°
2026-04-24 19:25 53.44893 9.39337 17290 ft 361 kts 212°
2026-04-24 19:26 53.42672 9.37316 18145 ft 364 kts 212°
2026-04-24 19:26 53.40460 9.35300 18809 ft 369 kts 211°
2026-04-24 19:26 53.38189 9.33238 19526 ft 371 kts 212°
2026-04-24 19:26 53.35915 9.31177 20333 ft 372 kts 212°
2026-04-24 19:27 53.33620 9.29143 21100 ft 376 kts 209°
2026-04-24 19:27 53.31145 9.27638 21832 ft 383 kts 198°
2026-04-24 19:27 53.28504 9.26785 22556 ft 388 kts 194°
2026-04-24 19:27 53.25834 9.26003 23262 ft 391 kts 194°
2026-04-24 19:28 53.23141 9.25209 23895 ft 394 kts 194°
2026-04-24 19:28 53.20434 9.24406 24108 ft 395 kts 194°
2026-04-24 19:28 53.17729 9.23605 24163 ft 395 kts 194°
2026-04-24 19:28 53.15055 9.22816 24182 ft 395 kts 194°
2026-04-24 19:29 53.09647 9.21219 24182 ft 395 kts 194°
2026-04-24 19:29 53.06944 9.20418 24181 ft 394 kts 194°
2026-04-24 19:29 53.04240 9.19616 24184 ft 394 kts 194°
2026-04-24 19:30 53.01537 9.18818 24184 ft 394 kts 194°
2026-04-24 19:30 52.98836 9.18022 24183 ft 394 kts 194°
2026-04-24 19:30 52.96158 9.17104 24186 ft 391 kts 200°
2026-04-24 19:30 52.93614 9.15580 24183 ft 387 kts 208°
2026-04-24 19:31 52.91231 9.13540 24183 ft 385 kts 212°
2026-04-24 19:31 52.88871 9.11452 24177 ft 384 kts 212°
2026-04-24 19:31 52.86516 9.09381 24238 ft 386 kts 212°
2026-04-24 19:31 52.84130 9.07290 24834 ft 388 kts 212°
2026-04-24 19:32 52.81743 9.05202 25451 ft 390 kts 212°
2026-04-24 19:32 52.79339 9.03104 26049 ft 392 kts 212°
2026-04-24 19:32 52.76922 9.00998 26633 ft 394 kts 212°
2026-04-24 19:32 52.74487 8.98882 27209 ft 396 kts 212°
2026-04-24 19:33 52.72044 8.96762 27779 ft 398 kts 213°
2026-04-24 19:33 52.69585 8.94630 28340 ft 401 kts 213°
2026-04-24 19:33 52.67111 8.92483 28865 ft 403 kts 213°
2026-04-24 19:33 52.64624 8.90317 29369 ft 406 kts 213°
2026-04-24 19:34 52.62123 8.88140 29876 ft 409 kts 213°
2026-04-24 19:34 52.59600 8.85949 30372 ft 411 kts 213°
2026-04-24 19:34 52.57062 8.83753 30792 ft 414 kts 213°
2026-04-24 19:34 52.54504 8.81547 31201 ft 416 kts 213°
2026-04-24 19:35 52.51928 8.79331 31622 ft 419 kts 213°
2026-04-24 19:35 52.49352 8.77122 32184 ft 417 kts 213°
2026-04-24 19:35 52.46787 8.74925 32770 ft 416 kts 213°
2026-04-24 19:35 52.44227 8.72734 33335 ft 414 kts 213°
2026-04-24 19:36 52.41676 8.70548 33892 ft 413 kts 213°
2026-04-24 19:36 52.39168 8.68395 34407 ft 413 kts 213°
2026-04-24 19:36 52.36631 8.66218 34842 ft 412 kts 213°
2026-04-24 19:36 52.34087 8.64038 35275 ft 412 kts 213°
2026-04-24 19:37 52.31542 8.61861 35710 ft 412 kts 213°
2026-04-24 19:37 52.28996 8.59688 36074 ft 413 kts 213°
2026-04-24 19:37 52.26592 8.57186 36164 ft 404 kts 222°
2026-04-24 19:38 52.22377 8.51372 36179 ft 394 kts 225°
2026-04-24 19:38 52.18226 8.45566 36181 ft 393 kts 225°
2026-04-24 19:39 52.14072 8.39773 36181 ft 393 kts 225°
2026-04-24 19:39 52.09912 8.34003 36191 ft 392 kts 225°
2026-04-24 19:40 52.05757 8.28250 36184 ft 392 kts 225°
2026-04-24 19:40 52.01599 8.22510 36198 ft 392 kts 225°
2026-04-24 19:41 51.97442 8.16780 36173 ft 392 kts 224°
2026-04-24 19:41 51.93279 8.11057 36177 ft 392 kts 224°
2026-04-24 19:42 51.89121 8.05358 36179 ft 392 kts 224°
2026-04-24 19:42 51.84932 7.99641 36185 ft 392 kts 224°
2026-04-24 19:43 51.80760 7.93953 36192 ft 392 kts 224°
2026-04-24 19:43 51.76583 7.88267 36172 ft 392 kts 224°
2026-04-24 19:44 51.72407 7.82602 36182 ft 392 kts 224°
2026-04-24 19:44 51.68222 7.76943 36182 ft 392 kts 224°
2026-04-24 19:45 51.64063 7.71329 36213 ft 394 kts 224°
2026-04-24 19:45 51.59858 7.65669 36195 ft 393 kts 224°
2026-04-24 19:46 51.55661 7.60040 36179 ft 393 kts 223°
2026-04-24 19:46 51.51474 7.54427 36196 ft 392 kts 223°
2026-04-24 19:47 51.47282 7.48822 36204 ft 392 kts 223°
2026-04-24 19:47 51.43089 7.43235 36200 ft 392 kts 223°
2026-04-24 19:48 51.38899 7.37668 36198 ft 392 kts 223°
2026-04-24 19:48 51.32638 7.29371 36186 ft 391 kts 223°
2026-04-24 19:49 51.24274 7.18301 36216 ft 390 kts 223°
2026-04-24 19:50 51.15891 7.07298 36212 ft 391 kts 223°
2026-04-24 19:51 51.09587 6.99050 36196 ft 391 kts 222°
2026-04-24 19:52 51.03284 6.90841 36196 ft 390 kts 222°
2026-04-24 19:52 50.99083 6.85388 36199 ft 390 kts 221°
2026-04-24 19:53 50.96787 6.83078 36198 ft 395 kts 207°
2026-04-24 19:53 50.94152 6.81745 36194 ft 399 kts 200°
2026-04-24 19:54 50.86095 6.78349 36190 ft 400 kts 199°
2026-04-24 19:54 50.80717 6.76102 36187 ft 399 kts 199°
2026-04-24 19:55 50.77125 6.74594 36183 ft 399 kts 199°
2026-04-24 19:55 50.69973 6.71595 36192 ft 399 kts 199°
2026-04-24 19:56 50.64605 6.69350 36173 ft 399 kts 199°
2026-04-24 19:56 50.59242 6.67121 36187 ft 399 kts 199°
2026-04-24 19:57 50.53873 6.64896 36197 ft 399 kts 199°
2026-04-24 19:57 50.48516 6.62669 36196 ft 399 kts 199°
2026-04-24 19:58 50.43155 6.60439 36187 ft 398 kts 199°
2026-04-24 19:58 50.37795 6.58231 36187 ft 398 kts 198°
2026-04-24 19:59 50.32439 6.56026 36184 ft 398 kts 198°
2026-04-24 19:59 50.26957 6.54541 36185 ft 401 kts 191°
2026-04-24 20:00 50.21418 6.53464 36169 ft 401 kts 191°
2026-04-24 20:00 50.15908 6.52418 36172 ft 401 kts 191°
2026-04-24 20:01 50.10368 6.51346 36168 ft 401 kts 191°
2026-04-24 20:01 50.04828 6.50281 36167 ft 401 kts 191°
2026-04-24 20:02 50.00183 6.49390 36149 ft 401 kts 190°
2026-04-24 20:02 49.93746 6.48147 36158 ft 401 kts 190°
2026-04-24 20:03 49.88213 6.47076 36170 ft 401 kts 190°
2026-04-24 20:03 49.83569 6.46202 36178 ft 402 kts 188°
2026-04-24 20:03 49.80765 6.46365 36183 ft 407 kts 174°
2026-04-24 20:04 49.77981 6.47184 36174 ft 408 kts 172°
2026-04-24 20:04 49.72408 6.48917 36181 ft 408 kts 172°
2026-04-24 20:05 49.66851 6.50677 36182 ft 408 kts 172°
2026-04-24 20:05 49.61294 6.52419 36179 ft 405 kts 172°
2026-04-24 20:05 49.58533 6.53281 35965 ft 403 kts 172°
2026-04-24 20:06 49.55784 6.54135 35629 ft 403 kts 172°
2026-04-24 20:06 49.53040 6.54980 35302 ft 401 kts 172°
2026-04-24 20:06 49.50306 6.55822 34989 ft 402 kts 172°
2026-04-24 20:06 49.47561 6.56665 34662 ft 402 kts 172°
2026-04-24 20:07 49.45741 6.57224 34472 ft 403 kts 172°
2026-04-24 20:07 49.42060 6.58357 34018 ft 404 kts 171°
2026-04-24 20:07 49.39297 6.59210 33665 ft 405 kts 171°
2026-04-24 20:07 49.36531 6.60060 33313 ft 406 kts 171°
2026-04-24 20:08 49.33795 6.60900 33133 ft 405 kts 171°
2026-04-24 20:08 49.28266 6.62590 33161 ft 405 kts 171°
2026-04-24 20:09 49.22712 6.64294 33172 ft 405 kts 171°
2026-04-24 20:09 49.17222 6.65981 33168 ft 406 kts 171°
2026-04-24 20:10 49.11674 6.67667 33164 ft 407 kts 171°
2026-04-24 20:10 49.06139 6.69349 33161 ft 404 kts 171°
2026-04-24 20:11 49.00633 6.71018 33164 ft 403 kts 172°
2026-04-24 20:11 48.95070 6.71495 33163 ft 400 kts 184°
2026-04-24 20:12 48.89510 6.71258 33160 ft 400 kts 183°
2026-04-24 20:12 48.83959 6.71036 33157 ft 398 kts 183°
2026-04-24 20:13 48.78431 6.70822 33158 ft 397 kts 183°
2026-04-24 20:13 48.72904 6.70611 33157 ft 397 kts 183°
2026-04-24 20:14 48.67384 6.70388 33157 ft 397 kts 183°
2026-04-24 20:14 48.61855 6.70175 33157 ft 397 kts 183°
2026-04-24 20:15 48.56331 6.69965 33157 ft 397 kts 183°
2026-04-24 20:15 48.50809 6.69750 33162 ft 397 kts 183°
2026-04-24 20:16 48.45284 6.69542 33158 ft 397 kts 183°
2026-04-24 20:16 48.39769 6.69332 33160 ft 396 kts 183°
2026-04-24 20:17 48.34258 6.69124 33160 ft 396 kts 183°
2026-04-24 20:17 48.28735 6.68912 32562 ft 397 kts 183°
2026-04-24 20:17 48.25974 6.68802 32228 ft 397 kts 183°
2026-04-24 20:18 48.24148 6.68729 32002 ft 398 kts 182°
2026-04-24 20:18 48.20443 6.68585 31567 ft 398 kts 182°
2026-04-24 20:18 48.17671 6.68477 31241 ft 398 kts 182°
2026-04-24 20:18 48.14902 6.68369 30927 ft 399 kts 182°
2026-04-24 20:19 48.12126 6.68264 30602 ft 400 kts 182°
2026-04-24 20:19 48.09344 6.68156 30283 ft 400 kts 182°
2026-04-24 20:19 48.06571 6.68049 29924 ft 398 kts 182°
2026-04-24 20:19 48.03807 6.67945 29558 ft 396 kts 182°
2026-04-24 20:20 48.01055 6.67845 29189 ft 394 kts 182°
2026-04-24 20:20 47.98329 6.67745 28832 ft 391 kts 182°
2026-04-24 20:20 47.95610 6.67640 28482 ft 389 kts 182°
2026-04-24 20:20 47.92910 6.67539 28131 ft 387 kts 182°
2026-04-24 20:21 47.90226 6.67440 27788 ft 385 kts 182°
2026-04-24 20:21 47.87547 6.67340 27449 ft 384 kts 182°
2026-04-24 20:21 47.84883 6.67242 27115 ft 382 kts 182°
2026-04-24 20:21 47.82235 6.67142 26782 ft 381 kts 182°
2026-04-24 20:22 47.79586 6.67042 26448 ft 379 kts 181°
2026-04-24 20:22 47.76955 6.66943 26120 ft 378 kts 181°
2026-04-24 20:22 47.74328 6.66845 25801 ft 376 kts 181°
2026-04-24 20:22 47.71717 6.66747 25484 ft 375 kts 181°
2026-04-24 20:23 47.69122 6.66647 25164 ft 373 kts 181°
2026-04-24 20:23 47.66530 6.66547 24859 ft 372 kts 181°
2026-04-24 20:23 47.63943 6.66449 24551 ft 371 kts 181°
2026-04-24 20:23 47.61406 6.66355 24247 ft 369 kts 181°
2026-04-24 20:24 47.59683 6.66291 24057 ft 367 kts 181°
2026-04-24 20:24 47.56271 6.66164 23644 ft 365 kts 181°
2026-04-24 20:24 47.53739 6.66068 23290 ft 363 kts 181°
2026-04-24 20:24 47.51227 6.65972 23110 ft 361 kts 181°
2026-04-24 20:25 47.48710 6.65879 23146 ft 362 kts 181°
2026-04-24 20:25 47.46187 6.65788 23139 ft 362 kts 181°
2026-04-24 20:25 47.43670 6.65698 23137 ft 362 kts 181°
2026-04-24 20:25 47.41149 6.65612 23137 ft 362 kts 181°
2026-04-24 20:26 47.38628 6.65525 23139 ft 362 kts 181°
2026-04-24 20:26 47.36110 6.65434 23131 ft 363 kts 181°
2026-04-24 20:26 47.33572 6.65335 23141 ft 366 kts 181°
2026-04-24 20:26 47.31024 6.65235 23149 ft 367 kts 181°
2026-04-24 20:27 47.28465 6.65134 23146 ft 368 kts 181°
2026-04-24 20:27 47.25907 6.64968 23143 ft 367 kts 186°
2026-04-24 20:27 47.23394 6.64290 23150 ft 368 kts 195°
2026-04-24 20:27 47.20987 6.63015 23153 ft 368 kts 204°
2026-04-24 20:28 47.18746 6.61182 23152 ft 370 kts 213°
2026-04-24 20:28 47.16740 6.58851 23136 ft 367 kts 220°
2026-04-24 20:28 47.14843 6.56333 23142 ft 366 kts 220°
2026-04-24 20:28 47.12952 6.53842 23140 ft 366 kts 220°
2026-04-24 20:29 47.11694 6.52193 23155 ft 365 kts 219°
2026-04-24 20:29 47.09154 6.48880 23157 ft 365 kts 219°
2026-04-24 20:29 47.07253 6.46408 23152 ft 365 kts 219°
2026-04-24 20:29 47.05377 6.43967 23138 ft 365 kts 219°
2026-04-24 20:30 47.03451 6.41457 23133 ft 366 kts 219°
2026-04-24 20:30 47.01557 6.38984 23129 ft 365 kts 219°
2026-04-24 20:30 46.99679 6.36537 23143 ft 366 kts 219°
2026-04-24 20:30 46.97776 6.34064 23141 ft 366 kts 219°
2026-04-24 20:31 46.95866 6.31587 23140 ft 366 kts 219°
2026-04-24 20:31 46.93960 6.29118 23143 ft 366 kts 219°
2026-04-24 20:31 46.92052 6.26644 23141 ft 366 kts 219°
2026-04-24 20:31 46.90121 6.24139 23071 ft 367 kts 219°
2026-04-24 20:32 46.88218 6.21661 22663 ft 365 kts 220°
2026-04-24 20:32 46.86353 6.19225 22269 ft 362 kts 220°
2026-04-24 20:32 46.84479 6.16778 21816 ft 360 kts 220°
2026-04-24 20:32 46.82614 6.14348 21228 ft 358 kts 220°
2026-04-24 20:33 46.80761 6.11937 20649 ft 356 kts 220°
2026-04-24 20:33 46.78918 6.09545 20101 ft 353 kts 220°
2026-04-24 20:33 46.77062 6.07139 19544 ft 351 kts 220°
2026-04-24 20:33 46.75241 6.04778 18995 ft 349 kts 220°
2026-04-24 20:34 46.73458 6.02466 18480 ft 347 kts 220°
2026-04-24 20:34 46.71652 6.00131 17818 ft 347 kts 220°
2026-04-24 20:34 46.69849 5.97803 17159 ft 346 kts 220°
2026-04-24 20:34 46.68043 5.95473 16511 ft 346 kts 220°
2026-04-24 20:35 46.66258 5.93172 16188 ft 338 kts 220°
2026-04-24 20:35 46.64511 5.90921 15839 ft 335 kts 220°
2026-04-24 20:35 46.62762 5.88674 15257 ft 336 kts 220°
2026-04-24 20:35 46.61004 5.86442 14690 ft 334 kts 218°
2026-04-24 20:36 46.59068 5.84800 14139 ft 313 kts 200°
2026-04-24 20:36 46.57001 5.84147 13561 ft 300 kts 182°
2026-04-24 20:36 46.54943 5.84414 12957 ft 296 kts 166°
2026-04-24 20:36 46.53040 5.85533 12367 ft 295 kts 149°
2026-04-24 20:37 46.51335 5.87227 11795 ft 299 kts 146°
2026-04-24 20:37 46.49631 5.88953 11223 ft 298 kts 146°
2026-04-24 20:37 46.47936 5.90659 10665 ft 295 kts 146°
2026-04-24 20:37 46.46256 5.92344 10117 ft 293 kts 146°
2026-04-24 20:38 46.44575 5.94024 9526 ft 291 kts 147°
2026-04-24 20:38 46.42916 5.95680 8938 ft 287 kts 147°
2026-04-24 20:38 46.41350 5.97430 8350 ft 283 kts 133°
2026-04-24 20:38 46.40448 5.99825 8141 ft 261 kts 103°
2026-04-24 20:39 46.40487 6.02389 8135 ft 255 kts 73°
2026-04-24 20:39 46.41165 6.04754 8131 ft 254 kts 64°
2026-04-24 20:39 46.41953 6.07052 8129 ft 255 kts 63°
2026-04-24 20:39 46.42753 6.09343 8128 ft 254 kts 63°
2026-04-24 20:40 46.43550 6.11621 8129 ft 254 kts 63°
2026-04-24 20:40 46.44351 6.13905 8131 ft 255 kts 63°
2026-04-24 20:40 46.45155 6.16196 8132 ft 254 kts 63°
2026-04-24 20:40 46.45956 6.18478 8131 ft 254 kts 63°
2026-04-24 20:41 46.46758 6.20763 8128 ft 255 kts 63°
2026-04-24 20:41 46.47562 6.23050 8130 ft 254 kts 63°
2026-04-24 20:41 46.48365 6.25338 8135 ft 254 kts 63°
2026-04-24 20:41 46.49169 6.27631 7978 ft 256 kts 63°
2026-04-24 20:42 46.49971 6.29917 7736 ft 253 kts 63°
2026-04-24 20:42 46.50765 6.32179 7498 ft 251 kts 63°
2026-04-24 20:42 46.51555 6.34428 7258 ft 250 kts 63°
2026-04-24 20:42 46.52317 6.36688 7059 ft 248 kts 70°
2026-04-24 20:43 46.52403 6.39126 6941 ft 245 kts 108°
2026-04-24 20:43 46.51461 6.41123 6828 ft 242 kts 140°
2026-04-24 20:43 46.50598 6.42161 6749 ft 243 kts 138°
2026-04-24 20:43 46.49547 6.44994 6595 ft 244 kts 99°
2026-04-24 20:44 46.49421 6.46617 6514 ft 245 kts 95°
2026-04-24 20:44 46.49214 6.49066 6378 ft 245 kts 108°
2026-04-24 20:44 46.48319 6.51126 6254 ft 243 kts 139°
2026-04-24 20:44 46.46831 6.52203 6130 ft 241 kts 171°
2026-04-24 20:45 46.45183 6.51995 6022 ft 240 kts 202°
2026-04-24 20:45 46.43891 6.50586 5997 ft 228 kts 236°
2026-04-24 20:45 46.43347 6.48569 6019 ft 207 kts 259°
2026-04-24 20:45 46.43136 6.46591 5993 ft 190 kts 263°
2026-04-24 20:46 46.42973 6.44762 5993 ft 178 kts 263°
2026-04-24 20:46 46.42819 6.42973 5771 ft 178 kts 263°
2026-04-24 20:46 46.42670 6.41199 5540 ft 177 kts 263°
2026-04-24 20:46 46.42509 6.39428 5285 ft 177 kts 259°
2026-04-24 20:47 46.42008 6.37815 5067 ft 176 kts 232°
2026-04-24 20:47 46.41167 6.36526 4994 ft 176 kts 225°
2026-04-24 20:47 46.40308 6.35251 5004 ft 177 kts 225°
2026-04-24 20:47 46.39455 6.33985 5022 ft 168 kts 225°
2026-04-24 20:48 46.38713 6.32886 5001 ft 142 kts 226°
2026-04-24 20:48 46.38034 6.31881 4920 ft 138 kts 226°
2026-04-24 20:48 46.37372 6.30901 4774 ft 137 kts 226°
2026-04-24 20:48 46.36696 6.29900 4607 ft 137 kts 226°
2026-04-24 20:49 46.36036 6.28924 4437 ft 137 kts 226°
2026-04-24 20:49 46.35365 6.27933 4249 ft 138 kts 226°
2026-04-24 20:49 46.34685 6.26928 4073 ft 138 kts 226°
2026-04-24 20:49 46.34019 6.25942 3888 ft 137 kts 226°
2026-04-24 20:50 46.33361 6.24970 3715 ft 137 kts 226°
2026-04-24 20:50 46.32686 6.23974 3533 ft 137 kts 226°
2026-04-24 20:50 46.32028 6.23004 3367 ft 137 kts 226°
2026-04-24 20:50 46.31362 6.22020 3175 ft 137 kts 226°
2026-04-24 20:51 46.30697 6.21039 2995 ft 136 kts 226°
2026-04-24 20:51 46.30034 6.20063 2809 ft 136 kts 226°
2026-04-24 20:51 46.29372 6.19087 2634 ft 136 kts 226°
2026-04-24 20:51 46.28713 6.18117 2452 ft 134 kts 226°
2026-04-24 20:52 46.28062 6.17158 2272 ft 133 kts 226°
2026-04-24 20:52 46.27417 6.16208 2092 ft 131 kts 227°
2026-04-24 20:52 46.26800 6.15301 1898 ft 123 kts 227°
2026-04-24 20:52 46.26207 6.14430 1742 ft 120 kts 226°
2026-04-24 20:53 46.25609 6.13568 1604 ft 123 kts 227°
2026-04-24 20:53 46.25005 6.12658 1427 ft 129 kts 227°
2026-04-24 20:53 46.24399 6.11765 1372 ft 113 kts 223°
2026-04-24 20:53 46.23998 6.11180 1377 ft 55 kts 226°
2026-04-24 20:54 46.23747 6.10798 1381 ft 66 kts 227°
2026-04-24 20:54 46.23433 6.10344 1399 ft 57 kts 225°
2026-04-24 20:54 46.23214 6.10128 1399 ft 27 kts 188°
2026-04-24 20:54 46.23127 6.10098 1400 ft 0 kts 186°
2026-04-24 20:55 46.23115 6.10098 1398 ft 5 kts 177°
2026-04-24 20:55 46.23092 6.10176 1394 ft 14 kts 64°
2026-04-24 20:55 46.23161 6.10290 1400 ft 16 kts 46°
2026-04-24 20:56 46.23242 6.10410 1401 ft 18 kts 46°
2026-04-24 20:56 46.23283 6.10506 1399 ft 8 kts 105°
2026-04-24 20:56 46.23251 6.10566 1394 ft 8 kts 135°
2026-04-24 20:56 46.23212 6.10623 1402 ft 8 kts 135°
2026-04-24 20:57 46.23186 6.10692 1393 ft 7 kts 117°
2026-04-24 20:57 46.23164 6.10728 1397 ft 0 kts 136°
2026-04-24 20:57 46.23156 6.10739 1399 ft 0 kts 135°